This is the latest recevied weather packets stored in our database for station/object NN5DX-12. If no packets are shown the sender has not sent any weather packets the latest 10 day(s).
| Time | Temp. | Humidity | Pressure | Rain* | Wind** | Luminosity | Snow |
|---|---|---|---|---|---|---|---|
| 1778103316 | -0.56° C | 83% | 1019.7 hPa | 0 mm | - | - | - |
| 1778103016 | -0.56° C | 83% | 1019.8 hPa | 0 mm | - | - | - |
| 1778102716 | -0.56° C | 83% | 1019.8 hPa | 0 mm | - | - | - |
| 1778102416 | -0.56° C | 85% | 1019.8 hPa | 0 mm | - | - | - |
| 1778102116 | -1.11° C | 84% | 1019.8 hPa | 0 mm | - | - | - |
| 1778101816 | -1.11° C | 83% | 1019.9 hPa | 0 mm | - | - | - |
| 1778101516 | -1.11° C | 84% | 1019.9 hPa | 0 mm | - | - | - |
| 1778101216 | -1.11° C | 84% | 1019.9 hPa | 0 mm | - | - | - |
| 1778100916 | -1.11° C | 83% | 1019.9 hPa | 0 mm | - | - | - |
| 1778100616 | -1.11° C | 82% | 1020 hPa | 0 mm | - | - | - |
| 1778100316 | -0.56° C | 80% | 1020.2 hPa | 0 mm | - | - | - |
| 1778100016 | 0° C | 84% | 1020.9 hPa | 0 mm | - | - | - |
| 1778099716 | -0.56° C | 86% | 1020.3 hPa | 0 mm | - | - | - |
| 1778099416 | -1.11° C | 83% | 1020.2 hPa | 0 mm | - | - | - |
| 1778099116 | -1.11° C | 84% | 1020.3 hPa | 0 mm | - | - | - |
| 1778098816 | -1.67° C | 86% | 1019.7 hPa | 0 mm | - | - | - |
| 1778098516 | -1.67° C | 85% | 1019.8 hPa | 0 mm | - | - | - |
| 1778098216 | -2.22° C | 88% | 1019.8 hPa | 0 mm | - | - | - |
| 1778097916 | -2.22° C | 86% | 1019.1 hPa | 0 mm | - | - | - |
| 1778097618 | -2.22° C | 86% | 1019.1 hPa | 0 mm | - | - | - |
| 1778097317 | -2.22° C | 85% | 1019.7 hPa | 0 mm | - | - | - |
| 1778097016 | -2.22° C | 84% | 1019.6 hPa | 0 mm | - | - | - |
| 1778096719 | -2.22° C | 85% | 1019.8 hPa | 0 mm | - | - | - |
| 1778096418 | -2.22° C | 84% | 1019.8 hPa | 0 mm | - | - | - |
| 1778096117 | -2.22° C | 83% | 1019.8 hPa | 0 mm | - | - | - |
* Rain latest hour (hover to see other rain measurements)
** Current wind speed in m/s (hover to see current wind gust speed)